[[{"header":{"parameterUnit":"m.s-1","parameterCategory":1,"la1":30.2991,"la2":30.254,"lo1":-89.0895,"lo2":-89.0444,"dx":0.0017,"dy":0.0017,"nx":28,"ny":28,"refTime":"2022-11-15T09:00:00:Z","depth":0,"parameterNumber":2,"parameterNumberName":"U-component_of_WINDS"},"data":[0,0,0,0,0,0,0,0,0,0,0,0,0,0,0,0,0,0,0,0,0,0,0,0,0,0,0,0,0,0,0,0,0,0,0,0,0,0,0,0,0,0,0,0,0,0,0,0,0,0,0,0,0,0,0,0,0,0,0.7812,0.7812,0,0.7799,0.7799,0.7798,0.7793,0.7793,0.7793,0.7793,0.7778,0.7778,0.7777,0,0,0,0,0,0,0,0,0,0,0,0,0,0.7831,0.7831,0.7812,0.7812,0.7812,0.7799,0.7799,0.7798,0.7793,0.7793,0.7793,0.7793,0.7778,0.7778,0.7777,0,0,0,0,0,0,0,0,0,0,0,0,0,0.7821,0.7831,0.7812,0.7807,0.7807,0.7799,0.7799,0.7798,0.7793,0.7793,0.7793,0.7793,0.7778,0.7778,0.7777,0.7772,0,0,0.7775,0.7775,0,0,0,0,0,0,0,0,0.7822,0.782,0.7808,0.7808,0.7807,0.7798,0.78,0.779,0.7793,0.7798,0.7793,0.7793,0.7784,0.7783,0.7781,0.7771,0.7771,0.7775,0.7775,0.7774,0.7774,0,0,0,0,0,0,0,0.7822,0.7821,0.7807,0.7808,0.7807,0.7806,0.7804,0.7798,0.7791,0.7798,0.7797,0.7796,0.7784,0.7781,0.778,0.7771,0.7775,0.7774,0.7774,0.7774,0.7758,0.7758,0,0,0,0,0,0,0.7824,0.7821,0.7807,0.7806,0.7815,0.7805,0.7804,0.7801,0.7791,0.779,0.7796,0.7796,0.7782,0.7781,0.778,0.7774,0.7774,0.7774,0.7773,0.7758,0.7758,0.7758,0,0,0,0,0,0,0.7824,0.7823,0.7808,0.7814,0.7812,0.7805,0.7801,0.78,0.7797,0.779,0.7788,0.7794,0.7782,0.7781,0.7775,0.7773,0.7773,0.7773,0.7758,0.7758,0.7758,0.7762,0,0,0,0,0,0,0.7825,0.7823,0.7821,0.7814,0.7811,0.7803,0.7801,0.78,0.7797,0.7796,0.7788,0.7787,0.7782,0.7776,0.7774,0.7772,0.7772,0.7758,0.7758,0.7758,0.7762,0.7762,0.7763,0,0,0,0,0,0.7826,0.7822,0.7821,0.7819,0.7809,0.7803,0.7801,0.7797,0.7796,0.7795,0.779,0.7787,0.7774,0.7775,0.7773,0.7771,0.7758,0.7758,0.7758,0.7762,0.7762,0.7763,0,0,0,0,0,0,0.7828,0.7821,0.782,0.7814,0.7809,0.7802,0.7799,0.7797,0.7792,0.7791,0.7786,0.7784,0.7778,0.7774,0.7776,0.7767,0.7766,0.7766,0.777,0.777,0.777,0.7771,0.7772,0,0,0,0,0,0.7828,0.7824,0.7818,0.7813,0.7811,0.7806,0.7803,0.78,0.7794,0.7792,0.7787,0.7782,0.7776,0.7773,0.7768,0.7762,0.776,0.776,0.776,0.7761,0.776,0.7758,0.7757,0.7758,0.7758,0.7758,0,0,0.7828,0.7823,0.7821,0.7814,0.781,0.7805,0.7804,0.7799,0.7796,0.7791,0.7785,0.7782,0.7775,0.777,0.7767,0.7766,0.776,0.776,0.7761,0.776,0.7757,0.7757,0.7757,0.7758,0.7758,0.7758,0,0,0.7825,0.7821,0.7817,0.7814,0.7808,0.7805,0.7804,0.7798,0.7795,0.779,0.7786,0.7783,0.7774,0.777,0.7766,0.7764,0.7761,0.7763,0.7763,0.7761,0.7761,0.7761,0.776,0.776,0.7762,0.7762,0.7762,0,0.7825,0.7819,0.7815,0.7811,0.7808,0.7805,0.7801,0.7798,0.7791,0.7789,0.7788,0.7778,0.7773,0.7767,0.7767,0.7764,0.7763,0.7763,0.7761,0.7761,0.7761,0.776,0.776,0.7762,0.7762,0.7762,0.7762,0,0.7819,0.7815,0.7813,0.7807,0.7804,0.78,0.7796,0.7793,0.7791,0.7788,0.7783,0.7777,0.7772,0.777,0.7767,0.7764,0.7764,0.7762,0.7761,0.7761,0.776,0.776,0.7763,0.7763,0.7763,0.7762,0,0,0.7816,0.781,0.7809,0.7807,0.7801,0.7798,0.7794,0.7789,0.7787,0.7783,0.778,0.7773,0.7772,0.7769,0.7766,0.7764,0.7763,0.7763,0.7763,0.7763,0.776,0.776,0.776,0.7762,0.7762,0.7762,0.776,0,0.7812,0.7806,0.7803,0.7798,0.7794,0.7792,0.7789,0.7786,0.7783,0.778,0.7777,0.7772,0.7771,0.7769,0.7767,0.7764,0.7762,0.7764,0.7759,0.7759,0.776,0.776,0.776,0.7759,0.776,0.776,0.776,0,0.7807,0.7803,0.7798,0.7794,0.7793,0.779,0.7786,0.7783,0.7779,0.7777,0.7774,0.7772,0.7768,0.7768,0.7763,0.7764,0.7762,0.776,0.776,0.7759,0.7759,0.7758,0.7758,0.7758,0.7759,0.7759,0.7759,0,0.7805,0.7799,0.7796,0.7794,0.7789,0.7787,0.7785,0.7782,0.7779,0.7776,0.7775,0.7771,0.7768,0.7765,0.7762,0.7762,0.7758,0.7757,0.7756,0.7756,0.7754,0.7754,0.7754,0.7754,0.7754,0.7754,0.7754,0,0.7801,0.7798,0.7795,0.7793,0.7789,0.7787,0.7783,0.7781,0.7778,0.7776,0.7774,0.7771,0.7767,0.7764,0.7762,0.7759,0.7758,0.7756,0.7755,0.7756,0.7756,0.7754,0.7754,0.7754,0.7754,0.7754,0.7754,0,0.7798,0.7796,0.7792,0.7789,0.7788,0.7786,0.7783,0.778,0.7778,0.7775,0.7774,0.7771,0.7767,0.7765,0.776,0.7758,0.7755,0.7754,0.7756,0.7756,0.7755,0.7755,0.7752,0.7752,0.7753,0.7753,0.7753,0,0.7795,0.7793,0.779,0.7788,0.7787,0.7784,0.7782,0.778,0.7778,0.7775,0.7773,0.777,0.7767,0.7762,0.7759,0.7755,0.7754,0.7754,0.7754,0.7755,0.7754,0.7754,0.7754,0.7753,0.7753,0.7753,0.7753,0,0.7791,0.779,0.7788,0.7785,0.7783,0.7781,0.7779,0.7778,0.7775,0.7773,0.777,0.7768,0.7764,0.7761,0.7758,0.7756,0.7754,0.7754,0.7753,0.7754,0.7755,0.7754,0.7756,0.7753,0.7753,0.7753,0.7753,0.7753,0.7788,0.7786,0.7784,0.7781,0.778,0.7778,0.7776,0.7775,0.7772,0.7769,0.7768,0.7765,0.7763,0.7759,0.7757,0.7754,0.7754,0.7753,0.7753,0.7753,0.7753,0.7756,0.7754,0.7754,0.7754,0.7754,0.7754,0,0.7783,0.7782,0.778,0.7777,0.7776,0.7776,0.7774,0.7772,0.777,0.7768,0.7766,0.7763,0.776,0.7758,0.7755,0.7754,0.7753,0.7753,0.7753,0.7753,0.7753,0.7754,0.7754,0.7754,0.7754,0.7754,0.7754,0.7754,0.778,0.7777,0.7777,0.7774,0.7773,0.777,0.7769,0.7768,0.7766,0.7763,0.7762,0.776,0.7759,0.7756,0.7754,0.7753,0.7752,0.7752,0.7752,0.7752,0.7752,0.7752,0.7753,0.7752,0.7752,0.7751,0.7751,0.7751]},{"header":{"parameterUnit":"m.s-1","parameterCategory":1,"la1":30.2991,"la2":30.254,"lo1":-89.0895,"lo2":-89.0444,"dx":0.0017,"dy":0.0017,"nx":28,"ny":28,"refTime":"2022-11-15T09:00:00:Z","depth":0,"parameterNumber":3,"parameterNumberName":"V-component_of_WINDS"},"data":[0,0,0,0,0,0,0,0,0,0,0,0,0,0,0,0,0,0,0,0,0,0,0,0,0,0,0,0,0,0,0,0,0,0,0,0,0,0,0,0,0,0,0,0,0,0,0,0,0,0,0,0,0,0,0,0,0,0,-7.0699,-7.07,0,-7.0805,-7.0806,-7.0807,-7.0757,-7.0755,-7.0752,-7.0749,-7.0852,-7.0857,-7.0862,0,0,0,0,0,0,0,0,0,0,0,0,0,-7.045,-7.0455,-7.0699,-7.07,-7.0702,-7.0804,-7.0806,-7.0807,-7.0758,-7.0754,-7.0751,-7.0748,-7.085,-7.0856,-7.0862,0,0,0,0,0,0,0,0,0,0,0,0,0,-7.0557,-7.0456,-7.0699,-7.069,-7.069,-7.0804,-7.0806,-7.0808,-7.0758,-7.0754,-7.075,-7.0747,-7.0848,-7.0856,-7.0863,-7.0991,0,0,-7.0887,-7.089,0,0,0,0,0,0,0,0,-7.0551,-7.0566,-7.069,-7.069,-7.0691,-7.0764,-7.0755,-7.0869,-7.0759,-7.0732,-7.0749,-7.0745,-7.0825,-7.0835,-7.0863,-7.0996,-7.1,-7.0888,-7.0893,-7.0896,-7.0898,0,0,0,0,0,0,0,-7.0544,-7.0561,-7.0741,-7.0691,-7.0692,-7.0678,-7.0689,-7.0777,-7.08,-7.0734,-7.0731,-7.0744,-7.0825,-7.0856,-7.0865,-7.1002,-7.0888,-7.0894,-7.0899,-7.0902,-7.1245,-7.125,0,0,0,0,0,0,-7.0537,-7.0555,-7.0737,-7.0744,-7.061,-7.0686,-7.0698,-7.0744,-7.0799,-7.0803,-7.0748,-7.0742,-7.0844,-7.0856,-7.0868,-7.1022,-7.0896,-7.0903,-7.0908,-7.1241,-7.1246,-7.1251,0,0,0,0,0,0,-7.0532,-7.0554,-7.0733,-7.0649,-7.0671,-7.0695,-7.0747,-7.0749,-7.0779,-7.0809,-7.0812,-7.0775,-7.0842,-7.0858,-7.0962,-7.1025,-7.0907,-7.0914,-7.1236,-7.1243,-7.1249,-7.1331,0,0,0,0,0,0,-7.0525,-7.0552,-7.0602,-7.065,-7.0675,-7.0826,-7.0751,-7.0753,-7.0794,-7.0787,-7.0836,-7.084,-7.084,-7.095,-7.0969,-7.1034,-7.092,-7.123,-7.1239,-7.1247,-7.1322,-7.1339,-7.1354,0,0,0,0,0,-7.0516,-7.062,-7.0605,-7.0627,-7.0739,-7.083,-7.0844,-7.0843,-7.0799,-7.0849,-7.0868,-7.0838,-7.1015,-7.0961,-7.0982,-7.105,-7.1226,-7.1236,-7.1246,-7.1315,-7.1336,-7.1353,0,0,0,0,0,0,-7.0576,-7.0626,-7.061,-7.0733,-7.0778,-7.0821,-7.0884,-7.0865,-7.0922,-7.0913,-7.0908,-7.092,-7.1028,-7.1049,-7.0988,-7.1177,-7.1114,-7.1128,-7.1159,-7.1179,-7.1194,-7.1187,-7.0926,0,0,0,0,0,-7.0604,-7.0676,-7.0714,-7.0819,-7.0842,-7.086,-7.0899,-7.0895,-7.0941,-7.0959,-7.0986,-7.103,-7.1095,-7.1138,-7.12,-7.1325,-7.1335,-7.1382,-7.1398,-7.1411,-7.1423,-7.1491,-7.1513,-7.1284,-7.1284,-7.1284,0,0,-7.0661,-7.0697,-7.0742,-7.0832,-7.0866,-7.0939,-7.0876,-7.0955,-7.1009,-7.097,-7.1071,-7.1092,-7.1141,-7.1257,-7.1309,-7.1278,-7.1489,-7.1423,-7.1433,-7.1439,-7.1504,-7.1525,-7.1545,-7.1291,-7.1289,-7.1288,0,0,-7.0803,-7.0838,-7.0929,-7.0966,-7.102,-7.1031,-7.1053,-7.11,-7.1113,-7.1214,-7.1187,-7.125,-7.1363,-7.1399,-7.1432,-7.1589,-7.1564,-7.1609,-7.1691,-7.1757,-7.1775,-7.1791,-7.1847,-7.1867,-7.1622,-7.1622,-7.1622,0,-7.0867,-7.0978,-7.0978,-7.1061,-7.11,-7.1071,-7.1163,-7.1197,-7.1268,-7.1295,-7.126,-7.1402,-7.1432,-7.1556,-7.1595,-7.1623,-7.1647,-7.1604,-7.1773,-7.1789,-7.1804,-7.1857,-7.1878,-7.1627,-7.1627,-7.1626,-7.1626,0,-7.1054,-7.1131,-7.1198,-7.127,-7.1317,-7.1403,-7.1415,-7.1462,-7.1455,-7.1469,-7.1572,-7.1608,-7.1677,-7.1706,-7.1698,-7.1829,-7.1808,-7.1774,-7.171,-7.1831,-7.1881,-7.1901,-7.1635,-7.1633,-7.1631,-7.163,0,0,-7.1235,-7.1307,-7.1332,-7.1364,-7.1422,-7.1481,-7.1566,-7.1636,-7.1676,-7.1726,-7.1796,-7.1893,-7.1862,-7.19,-7.1896,-7.1954,-7.2076,-7.1912,-7.1913,-7.1941,-7.2222,-7.2248,-7.2272,-7.206,-7.2064,-7.2067,-7.2218,0,-7.1382,-7.1533,-7.1536,-7.1674,-7.1745,-7.1719,-7.1792,-7.1835,-7.1851,-7.1912,-7.1929,-7.1998,-7.1951,-7.1974,-7.203,-7.205,-7.2133,-7.2039,-7.2124,-7.2128,-7.2113,-7.2298,-7.2325,-7.2466,-7.2238,-7.2241,-7.2243,0,-7.1572,-7.1631,-7.1777,-7.1825,-7.1855,-7.1922,-7.1986,-7.2046,-7.2093,-7.2101,-7.2144,-7.2131,-7.2216,-7.2151,-7.2267,-7.2204,-7.2239,-7.2253,-7.2259,-7.2266,-7.2193,-7.231,-7.2511,-7.2532,-7.2274,-7.2272,-7.227,0,-7.169,-7.1805,-7.1907,-7.1936,-7.1995,-7.2043,-7.2069,-7.2113,-7.2155,-7.2211,-7.2238,-7.2302,-7.2337,-7.2386,-7.2391,-7.2342,-7.2508,-7.2443,-7.2515,-7.2516,-7.2551,-7.2549,-7.276,-7.2575,-7.2574,-7.2574,-7.2573,0,-7.1853,-7.1943,-7.1961,-7.2024,-7.2124,-7.2126,-7.2225,-7.2247,-7.2287,-7.2352,-7.2333,-7.2394,-7.2397,-7.2459,-7.2463,-7.2559,-7.2575,-7.2582,-7.2582,-7.2584,-7.2583,-7.2607,-7.2597,-7.2579,-7.2578,-7.2577,-7.2576,0,-7.2001,-7.2017,-7.2127,-7.2175,-7.2189,-7.2261,-7.2301,-7.236,-7.2375,-7.2458,-7.2478,-7.25,-7.2573,-7.2583,-7.2667,-7.267,-7.2785,-7.2775,-7.277,-7.2768,-7.2841,-7.2834,-7.3074,-7.3105,-7.29,-7.2902,-7.2903,0,-7.2103,-7.2173,-7.2229,-7.2273,-7.2303,-7.2373,-7.2416,-7.2421,-7.2466,-7.2527,-7.2579,-7.265,-7.2708,-7.2825,-7.2848,-7.2912,-7.2903,-7.2983,-7.2912,-7.2912,-7.2904,-7.29,-7.2906,-7.2996,-7.2998,-7.3,-7.3002,0,-7.2284,-7.2289,-7.2353,-7.2422,-7.2475,-7.2528,-7.2577,-7.2614,-7.2624,-7.2676,-7.2752,-7.2797,-7.2885,-7.2955,-7.302,-7.3045,-7.3025,-7.3024,-7.3044,-7.3046,-7.3041,-7.3045,-7.2807,-7.3018,-7.3016,-7.3015,-7.3014,-7.3014,-7.2412,-7.2473,-7.2523,-7.2595,-7.2634,-7.2681,-7.274,-7.2763,-7.2827,-7.29,-7.2898,-7.2981,-7.3027,-7.3111,-7.3141,-7.3205,-7.3179,-7.3208,-7.3215,-7.3223,-7.323,-7.3031,-7.3217,-7.3216,-7.3216,-7.3216,-7.3215,0,-7.2592,-7.2623,-7.269,-7.2762,-7.2819,-7.2798,-7.2852,-7.29,-7.2975,-7.302,-7.3078,-7.3165,-7.3234,-7.3262,-7.333,-7.3375,-7.3368,-7.3393,-7.3389,-7.3395,-7.325,-7.3225,-7.3398,-7.3398,-7.3398,-7.3398,-7.3397,-7.3397,-7.2692,-7.2793,-7.2805,-7.2925,-7.2954,-7.3038,-7.3071,-7.3114,-7.315,-7.3249,-7.3307,-7.3326,-7.3365,-7.3435,-7.3497,-7.3504,-7.3529,-7.3558,-7.356,-7.3424,-7.3405,-7.3388,-7.3365,-7.3564,-7.3564,-7.37,-7.3702,-7.3703]}]]